Wind_Speed
49 51 53 55 58 60 60 62 64 66 67 64 63 63 61 58 59 62 55 50 47 45 47 50 55 55 56 55 55 54 51 50 46 45 43 43 47 56 51 49 51 52 47
53 56 59 60 60 58 62 67 65 68 68 67 67 63 65 65 63 60 60 53 54 56 45 51 54 55 57 54 55 56 56 52 52 57 52 58 63 56 53 52 53 54 50
58 56 54 56 61 61 65 61 63 65 63 69 71 69 69 66 67 67 59 52 52 56 55 54 60 62 59 54 56 57 54 56 55 55 56 56 54 57 50 48 47 48 48
57 60 62 68 70 62 61 68 64 64 71 69 65 66 70 64 71 66 64 65 63 57 57 58 65 63 63 60 59 63 63 63 51 51 50 51 51 45 50 52 48 50 50
70 68 71 74 69 73 81 74 82 79 79 84 75 78 79 74 64 69 68 71 67 66 66 61 62 70 68 69 65 66 66 64 60 60 56 58 52 54 54 59 54 51 57
79 79 84 83 84 81 89 83 82 86 90 91 84 92 83 81 75 76 77 75 80 79 78 70 70 64 69 66 70 73 69 64 63 73 64 61 61 57 64 62 64 69 64
86 90 85 82 84 90 92 92 91 93 98 102 98 92 88 83 82 85 88 90 91 91 86 82 83 82 80 72 76 79 76 71 70 70 60 72 69 73 69 75 77 72 64
90 91 88 83 88 96 93 99 97 101 111 111 103 92 89 91 91 93 95 98 96 97 99 95 92 93 89 82 82 84 69 79 80 65 75 74 81 81 88 84 69 84 87
90 95 88 89 101 106 101 100 105 121 118 110 99 99 103 101 99 101 100 102 106 109 110 108 106 99 95 93 92 87 88 86 86 80 75 78 80 78 83 81 74 81 80
90 87 97 105 105 103 106 111 123 127 121 111 111 114 115 117 117 116 114 113 114 116 118 122 113 105 101 103 102 96 95 96 93 88 84 82 82 81 91 90 86 85 83
89 100 106 104 107 120 126 126 128 125 123 122 122 125 126 125 122 124 123 121 122 122 123 124 124 111 106 113 114 107 105 104 101 93 90 95 93 92 90 86 86 86 80
103 111 112 119 125 130 132 128 128 127 126 127 129 131 132 129 127 122 121 121 120 120 120 119 121 121 114 112 127 124 116 112 110 106 101 106 101 98 90 88 92 91 76
111 123 129 131 135 137 134 134 130 130 133 134 135 132 128 123 120 115 113 110 106 106 107 107 106 109 109 108 115 132 130 124 121 113 110 111 111 104 93 95 93 91 87
132 133 136 139 141 144 139 134 136 138 134 130 127 123 115 109 105 100 96 94 92 92 92 90 89 90 93 95 102 115 129 132 130 125 116 120 116 109 101 94 96 96 89
138 144 145 144 145 142 139 140 134 129 124 117 109 103 99 96 94 89 86 83 81 81 80 81 80 81 82 82 85 94 104 133 131 131 124 124 121 113 101 94 98 94 90
146 144 147 143 143 137 136 128 124 117 109 102 95 92 89 88 85 81 78 78 75 75 73 73 73 73 69 71 76 78 86 98 123 138 134 128 121 118 98 99 100 92 87
138 135 140 136 136 136 127 116 108 103 97 91 88 84 81 80 79 76 73 73 73 70 67 66 66 64 63 62 67 72 77 87 98 105 120 134 119 121 104 99 103 101 90
139 136 135 139 134 122 109 102 98 93 88 84 80 77 73 71 73 71 68 67 67 65 63 61 60 58 57 58 61 67 70 79 81 85 93 113 122 121 112 103 108 106 94
135 137 136 132 118 109 98 89 87 84 80 75 71 69 68 65 65 64 62 60 61 63 59 57 54 54 56 57 59 65 73 78 77 79 80 89 106 116 111 107 110 106 101
140 139 130 119 107 96 87 82 78 73 71 68 65 61 62 61 58 56 55 55 55 57 56 53 53 52 54 57 59 67 76 77 76 75 81 85 92 110 108 107 105 106 101
136 128 118 105 94 85 80 76 74 66 61 59 59 57 55 54 53 52 50 50 51 51 51 51 51 51 53 56 58 68 74 79 80 83 83 92 96 98 105 105 108 109 109
124 113 99 91 84 78 72 65 62 64 53 52 51 50 49 49 48 47 46 43 47 47 49 49 47 51 53 55 59 67 73 79 85 87 89 88 91 95 100 107 111 111 112
106 96 87 81 76 67 64 56 52 55 49 48 44 43 44 45 45 43 42 41 41 43 45 45 46 46 51 55 57 62 74 83 89 91 94 94 95 97 104 111 113 116 116
93 85 79 73 67 62 58 53 49 49 47 43 40 41 40 40 40 39 38 38 39 39 42 45 45 45 48 53 56 58 70 84 88 94 95 98 103 103 108 115 117 115 116
85 79 74 67 62 58 53 49 46 45 42 40 38 35 35 36 36 36 35 35 35 36 36 40 41 43 46 53 56 59 62 75 87 94 99 103 105 108 115 121 122 122 121
77 72 67 61 57 53 49 45 43 40 40 38 35 33 32 32 32 32 33 33 33 33 33 35 38 39 43 48 53 56 59 68 73 85 97 102 107 111 116 122 128 128 131
Wind_Direction
279 282 286 288 290 293 295 297 297 296 295 293 294 294 293 291 294 294 290 288 288 279 264 261 268 270 270 263 262 260 261 264 270 263 261 266 271 279 281 277 279 279 280
284 284 284 286 289 291 294 296 296 297 294 293 297 296 294 289 289 287 288 286 286 280 264 256 254 261 267 267 267 268 268 268 267 268 268 262 264 275 276 279 279 279 281
283 284 289 297 294 292 296 295 293 299 296 294 292 294 295 289 286 285 281 281 282 278 269 255 248 249 250 256 259 266 267 269 274 273 269 269 267 272 276 271 269 273 276
284 285 287 290 298 297 301 305 303 302 306 305 292 295 300 287 280 282 279 283 282 275 275 265 252 248 247 243 247 255 259 262 262 264 269 269 268 267 275 273 273 275 274
298 294 295 297 297 307 307 303 302 302 304 308 304 295 298 300 286 278 276 280 284 289 272 270 256 250 248 251 251 250 252 255 260 264 265 273 268 270 275 277 275 273 277
297 304 303 300 295 298 305 300 299 300 300 304 303 303 296 295 282 280 280 279 283 287 287 279 264 253 249 249 243 244 245 248 243 260 254 267 274 273 272 271 276 267 269
297 299 301 296 294 297 302 300 300 298 299 303 302 296 288 287 280 278 278 281 283 285 286 280 277 273 266 252 245 239 239 242 241 245 246 251 266 268 269 264 274 266 269
293 296 296 297 296 301 298 297 296 299 300 300 300 295 287 284 283 279 277 277 275 278 282 278 275 275 267 256 260 240 238 236 240 242 236 238 250 259 265 263 268 269 265
294 298 294 293 298 301 297 295 296 301 302 301 294 291 293 289 284 281 276 271 271 271 278 278 274 266 260 256 253 251 238 238 236 233 233 237 239 251 252 254 254 258 261
296 294 296 300 296 299 299 300 301 302 303 300 297 297 293 292 289 286 284 280 276 272 271 274 272 266 253 240 246 248 239 233 234 237 236 234 236 238 248 250 254 252 258
291 299 302 302 302 303 304 304 304 304 304 301 298 296 294 292 288 285 283 279 276 274 272 269 268 263 255 240 235 238 239 231 227 231 230 232 238 245 245 246 251 252 257
295 298 303 301 302 304 306 307 305 303 300 297 295 293 291 288 286 281 277 274 272 270 267 264 262 259 254 243 233 233 230 227 227 228 229 231 239 240 241 246 248 250 251
301 301 302 303 306 308 307 305 302 299 297 295 292 290 288 285 281 278 276 274 271 269 267 266 262 259 256 252 242 235 227 223 224 224 229 232 236 235 238 244 244 250 249
299 302 304 306 307 308 305 302 299 297 294 292 289 288 286 284 281 278 276 274 272 269 267 265 261 258 255 253 247 240 234 225 222 222 227 229 233 234 239 247 241 246 248
301 304 305 306 306 304 300 298 296 294 291 290 289 287 285 284 282 280 277 274 270 268 266 264 261 257 254 250 248 245 239 231 228 227 227 229 230 233 237 245 241 245 246
307 306 304 303 303 301 300 299 296 295 294 292 290 287 284 281 280 278 275 273 270 268 264 261 259 255 252 249 246 245 241 237 232 234 232 232 232 232 235 241 238 242 243
306 305 304 303 301 303 302 301 298 295 294 291 290 287 282 281 279 277 274 271 269 266 263 260 258 253 251 247 243 241 239 236 237 237 235 233 234 232 235 237 236 239 238
305 305 305 304 304 304 301 299 297 294 292 291 287 285 284 281 278 276 272 271 269 266 262 260 255 251 248 244 239 236 233 236 236 235 236 233 233 233 237 235 235 235 237
304 303 304 304 305 303 300 298 295 294 292 289 287 284 281 278 273 272 271 269 271 266 262 259 255 250 245 238 235 232 230 231 231 230 228 231 232 232 230 232 232 236 238
304 305 305 306 304 301 301 300 296 292 288 288 285 282 279 277 276 273 270 269 268 267 264 255 250 248 243 238 233 230 228 227 224 224 224 224 229 232 229 231 234 233 238
303 303 304 303 301 302 300 297 296 292 290 286 284 282 280 277 276 274 269 265 264 262 259 257 248 243 241 238 231 232 230 228 224 223 223 226 227 230 229 230 232 234 237
302 302 303 303 303 301 297 295 294 294 292 286 282 280 277 275 274 272 269 265 264 261 261 256 251 242 239 237 234 232 230 228 225 223 222 223 228 230 230 229 231 235 238
301 302 303 303 301 299 298 298 294 292 290 285 284 280 277 275 273 270 267 265 262 259 256 254 251 246 239 238 236 233 230 227 227 228 225 226 226 230 230 229 232 235 238
301 302 304 303 301 301 300 300 297 293 290 289 285 280 278 277 273 270 271 266 263 260 254 251 247 242 238 239 238 234 232 231 230 230 229 229 230 229 231 231 233 237 240
301 303 303 303 301 300 299 299 298 295 293 287 284 283 280 276 273 272 271 267 263 258 254 250 249 245 237 236 238 236 233 234 232 234 233 232 234 233 233 233 235 237 238
301 303 303 302 300 299 299 299 298 294 292 291 288 285 280 276 271 271 270 267 263 258 254 249 247 244 241 237 238 238 238 238 236 237 238 238 239 239 238 239 237 240 240
Height
10714 10712 10708 10704 10701 10698 10694 10689 10684 10682 10681 10680 10679 10678 10676 10674 10672 10667 10666 10665 10664 10663 10664 10664 10664 10664 10666 10667 10667 10669 10670 10670 10670 10670 10671 10671 10671 10672 10674 10673 10673 10673 10674
10702 10699 10696 10692 10689 10686 10683 10678 10674 10669 10665 10662 10661 10660 10658 10658 10657 10655 10653 10650 10646 10645 10646 10647 10650 10651 10651 10652 10653 10654 10657 10659 10660 10660 10659 10660 10660 10662 10661 10660 10660 10659 10660
10688 10685 10682 10679 10676 10672 10668 10663 10660 10655 10650 10646 10644 10641 10639 10638 10637 10637 10636 10635 10631 10628 10628 10627 10629 10632 10636 10641 10639 10641 10641 10641 10644 10644 10646 10649 10651 10649 10652 10648 10645 10646 10646
10673 10670 10667 10664 10662 10657 10650 10645 10640 10636 10633 10631 10626 10624 10621 10618 10616 10617 10615 10613 10614 10612 10610 10608 10607 10609 10614 10620 10624 10624 10626 10624 10632 10627 10630 10630 10633 10636 10638 10635 10634 10633 10632
10652 10650 10648 10646 10643 10635 10631 10624 10619 10614 10609 10606 10603 10600 10596 10595 10594 10595 10595 10594 10592 10592 10590 10588 10586 10587 10592 10598 10603 10605 10607 10612 10616 10618 10623 10618 10619 10622 10622 10622 10619 10616 10616
10631 10628 10625 10622 10619 10611 10607 10602 10597 10592 10588 10583 10578 10573 10568 10566 10566 10566 10567 10568 10568 10567 10566 10567 10566 10567 10569 10573 10575 10578 10586 10590 10588 10605 10606 10607 10608 10606 10609 10609 10607 10601 10599
10616 10610 10605 10601 10598 10591 10585 10578 10572 10566 10561 10557 10551 10547 10542 10541 10540 10538 10536 10535 10534 10536 10535 10537 10539 10542 10543 10546 10546 10553 10561 10563 10564 10563 10583 10577 10589 10593 10593 10594 10588 10586 10588
10597 10591 10587 10580 10575 10570 10562 10555 10547 10538 10530 10525 10519 10513 10510 10510 10510 10509 10506 10503 10503 10503 10503 10503 10504 10507 10512 10513 10518 10525 10533 10534 10538 10549 10552 10552 10568 10571 10575 10570 10572 10571 10570
10574 10568 10563 10557 10550 10543 10535 10527 10518 10506 10496 10489 10483 10477 10470 10470 10470 10469 10469 10470 10468 10467 10466 10466 10468 10470 10473 10476 10479 10488 10502 10504 10508 10520 10523 10524 10532 10538 10544 10543 10546 10547 10552
10548 10543 10537 10530 10521 10511 10501 10491 10482 10470 10455 10447 10443 10437 10429 10428 10428 10427 10427 10428 10426 10425 10428 10427 10429 10432 10437 10438 10442 10449 10464 10469 10475 10485 10495 10498 10499 10506 10510 10515 10519 10522 10532
10522 10515 10505 10494 10487 10479 10469 10456 10443 10428 10416 10407 10402 10396 10387 10383 10384 10381 10380 10379 10378 10377 10379 10382 10383 10391 10397 10401 10405 10411 10421 10433 10440 10449 10465 10470 10474 10482 10485 10489 10493 10505 10512
10495 10484 10472 10464 10456 10445 10431 10416 10402 10390 10380 10371 10361 10354 10344 10339 10331 10330 10327 10326 10323 10322 10324 10330 10333 10336 10347 10362 10366 10374 10383 10395 10407 10420 10433 10439 10449 10454 10460 10463 10473 10482 10489
10462 10454 10444 10432 10416 10405 10391 10377 10363 10355 10343 10332 10321 10309 10299 10290 10283 10279 10276 10277 10277 10276 10277 10282 10287 10293 10300 10314 10326 10338 10350 10358 10376 10390 10402 10409 10414 10425 10434 10438 10448 10458 10467
10431 10420 10407 10393 10379 10367 10352 10339 10326 10314 10302 10289 10276 10264 10253 10244 10240 10238 10238 10238 10239 10240 10241 10244 10248 10255 10261 10273 10283 10296 10319 10329 10338 10355 10370 10377 10388 10398 10410 10417 10426 10437 10444
10397 10384 10371 10357 10343 10333 10315 10298 10282 10268 10254 10245 10235 10224 10217 10208 10203 10203 10203 10205 10206 10207 10210 10212 10218 10224 10232 10243 10252 10261 10277 10297 10316 10325 10336 10348 10362 10371 10387 10395 10406 10412 10421
10356 10346 10335 10321 10308 10290 10274 10255 10238 10222 10208 10201 10195 10189 10183 10177 10173 10173 10174 10173 10177 10180 10184 10187 10193 10199 10209 10219 10226 10233 10244 10260 10278 10292 10307 10322 10337 10354 10362 10373 10381 10390 10398
10324 10312 10300 10284 10265 10246 10228 10211 10197 10185 10175 10167 10160 10156 10153 10150 10146 10146 10148 10149 10152 10156 10160 10164 10169 10177 10185 10197 10205 10210 10220 10230 10243 10260 10280 10299 10313 10327 10339 10345 10358 10366 10371
10284 10270 10254 10238 10222 10207 10190 10177 10164 10155 10148 10141 10135 10130 10128 10128 10123 10123 10125 10127 10130 10134 10138 10143 10150 10158 10166 10176 10183 10190 10200 10205 10221 10235 10250 10267 10286 10304 10317 10324 10333 10341 10347
10249 10236 10221 10205 10189 10172 10159 10150 10139 10128 10120 10117 10112 10106 10103 10104 10101 10102 10105 10106 10110 10114 10118 10123 10130 10139 10146 10155 10164 10172 10177 10184 10201 10216 10228 10242 10258 10273 10287 10294 10305 10314 10324
10213 10200 10184 10171 10157 10145 10134 10124 10115 10107 10100 10095 10090 10087 10084 10083 10083 10085 10087 10088 10091 10095 10101 10105 10110 10119 10128 10136 10144 10150 10155 10169 10183 10197 10209 10220 10229 10244 10258 10268 10278 10290 10297
10190 10172 10159 10146 10133 10121 10112 10103 10092 10086 10082 10078 10072 10069 10069 10067 10066 10066 10069 10072 10073 10077 10081 10087 10094 10101 10109 10118 10127 10132 10142 10154 10164 10176 10188 10198 10207 10218 10232 10244 10254 10263 10271
10163 10146 10136 10123 10109 10100 10092 10086 10076 10067 10065 10061 10057 10055 10053 10051 10051 10051 10052 10056 10058 10060 10064 10070 10077 10084 10092 10100 10108 10115 10126 10136 10146 10156 10166 10177 10186 10196 10207 10218 10228 10237 10244
10140 10128 10116 10105 10091 10084 10074 10070 10061 10053 10049 10044 10043 10041 10038 10037 10036 10036 10037 10039 10042 10045 10048 10053 10061 10068 10076 10083 10092 10102 10108 10118 10126 10134 10146 10156 10166 10175 10185 10195 10205 10212 10220
10118 10108 10099 10089 10077 10067 10060 10055 10046 10040 10035 10033 10030 10026 10025 10024 10023 10023 10024 10025 10027 10031 10034 10037 10043 10051 10060 10067 10075 10083 10090 10095 10108 10114 10129 10138 10146 10156 10161 10173 10182 10188 10196
10099 10090 10081 10073 10063 10053 10047 10041 10035 10028 10024 10020 10018 10016 10014 10012 10011 10011 10012 10013 10015 10017 10021 10025 10030 10037 10043 10048 10056 10066 10076 10081 10090 10099 10109 10118 10124 10133 10141 10151 10158 10166 10172
10083 10074 10065 10059 10050 10042 10035 10029 10023 10017 10013 10010 10007 10005 10004 10002 10001 10001 10002 10002 10004 10006 10009 10013 10018 10023 10029 10035 10042 10051 10059 10064 10079 10088 10094 10100 10107 10115 10124 10130 10138 10144 10150